星链-2472 (STARLINK-2472 )

导读 | 星芒AI

STARLINK-2472 是 SpaceX Starlink 卫星互联网项目中的第 2472 颗卫星,属于低轨卫星群的一部分,旨在为全球用户提供高速互联网服务。该卫星于近期由猎鹰九号火箭发射入轨,运行在约 550 公里的近地轨道上。Starlink 项目通过部署大量卫星,构建覆盖全球的通信网络,特别服务于偏远和网络基础设施薄弱的地区。STARLINK-2472 的加入进一步增强了系统的稳定性和覆盖范围。

基本信息
目录编号:
48130
目录名称:
STARLINK-2472
国际标识:
2021-027AQ
轨道中心:
EARTH
卫星名称:
星链-2472
卫星全名:
星链-2472 (STARLINK-2472 )
卫星状态:
在轨 (已飞行1716 天)
发射日期:
2021-04-07 UTC
国别 :
美国 (US)
星等 :
--
轨道信息
数据来源 国际轨道数据 AOE轨道数据
星历时间 2025-12-17T13:46:12+0800
20小时前
查看轨道信息
2025-12-17T10:00:00+0800
1天前
查看轨道信息
半长轴 6925.366km 6925.356km
偏心率 0.0001326 0.0001274
轨道倾角 53.053° 53.051°
近地点辐角 90.387° 77.123°
升交点赤经 187.295° 188.000°
平近点角 269.727° 150.641°
近地点 546.312km 546.338km
远地点 548.15km 548.104km
周期 95.592分钟 95.592分钟
每日圈数 15.063946 15.063978
详细信息
固有亮度:
5
最大亮度:
2.5
卫星平台:
Starlink V1.0
覆盖范围:
全球
运营商:
太空探索技术公司
运营商所在国:
美国
制造商(研发单位):
太空探索技术公司
制造商所在国:
美国
使用方式:
暂无
卫星简介
星链(Starlink)计划是由太空探索技术公司(SpaceX)提出的一个巨型低轨卫星互联网星座项目,计划在2019年至2024年间在太空搭建由约1.2万颗卫星组成的“星链”网络,其中1584颗将部署在地球上空550千米处的近地轨道,并从2020年开始工作。该卫星仍在工作。
2D轨道图
3D轨道图
轨道高度分析图
轨道倾角分析图
轨道综合分析图
查看轨道综合分析图